Miscellaneous Local Product
Issued by NWS North Platte, NE

Home | Current Version | Previous Version | Text Only | Print | Product List | Glossary On
Versions: 1 2 3 4 5 6 7 8 9 10 11 12 13 14 15 16 17 18 19 20 21 22 23 24 25 26 27 28 29 30 31 32 33 34 35 36 37 38 39 40 41 42 43 44 45 46 47 48 49 50
617
AXUS43 KLBF 232210
MISLBF


WESTERN AND NORTH CENTRAL NEBRASKA HOURLY WEATHER ROUNDUP
NATIONAL WEATHER SERVICE NORTH PLATTE NE
400 PM CST THU FEB 23 2017

NOTE: "FAIR" INDICATES FEW OR NO CLOUDS BELOW 12,000 FEET WITH NO
SIGNIFICANT WEATHER AND/OR OBSTRUCTIONS TO VISIBILITY.

NOTE: STATIONS NOT REPORTING VARIABLES SUCH AS SKY/WEATHER OR
PRESSURE ARE PROVIDED BY RAWS AND APRS NETWORKS AND ARE NOT UNDER
NATIONAL WEATHER SERVICE QUALITY CONTROL.

...OBSERVATIONS IN AND NEAR THE EASTERN PANHANDLE OF NEBRASKA...

CITY           SKY/WX    TMP DP  RH WIND       PRES   REMARKS
PINE RIDGE     LGT SNOW  27  23  85 NE18      29.79R VSB 3/4 WCI  14
CHADRON        FOG       25  22  88 NE24G30   29.80R VSB 1/2 WCI   9
ALLIANCE       FOG       22  19  89 NE26G32   29.69R VSB 1/4 WCI   5
SIDNEY         LGT SNOW  23  19  85 N18       29.66R VSB 1   WCI   9
CRESCENT LAKE    N/A     22  20  93 NE13G25     N/A  WCI  10
$$

...OBSERVATIONS IN NORTHERN NEBRASKA AND FAR SOUTHERN SOUTH DAKOTA...

CITY           SKY/WX    TMP DP  RH WIND       PRES   REMARKS
WINNER         LGT SNOW  30  27  88 N24G32    29.81F VSB 1   WCI  16
VALENTINE      SNOW      26  22  84 NE21G32   29.76R VSB 1/4 WCI  12
THEDFORD       LGT SNOW  28  25  89 NE18G29   29.66R WCI  15
AINSWORTH      LGT SNOW  27  26  97 N24       29.71S VSB 3/4 WCI  12
O`NEILL        MIX PCPN  30  29  96 N28G36    29.69F WCI  15
ORD            LGT SNOW  30  26  85 NE16G24   29.64F VSB 3/4 WCI  19
BROKEN BOW     LGT SNOW  30  27  88 NE14      29.64R VSB 3/4 WCI  19
VALENTINE NWR    N/A     25  23  92 NE20G29     N/A  WCI  11
BUTTE            N/A     27  26  94 N24G37      N/A  WCI  12
HALSEY           N/A     26  23  89 NE10G23     N/A  WCI  16
CHAMBERS         N/A     29  27  92 E6G13       N/A  WCI  23
EWING            N/A     31  29  91 NE16G24     N/A  WCI  20
$$

...OBSERVATIONS IN SOUTHWEST NEBRASKA AND FAR NORTHEAST COLORADO...

CITY           SKY/WX    TMP DP  RH WIND       PRES   REMARKS
HOLYOKE        LGT SNOW  30  27  86 N10       29.63R VSB 1   WCI  21
IMPERIAL       SNOW      28  25  88 N16       29.63R VSB 1/2 WCI  16
OGALLALA       LGT SNOW  29  26  88 NE14      29.66R WCI  18
NORTH PLATTE   LGT SNOW  30  25  81 NE16      29.63R WCI  19
MCCOOK         LGT SNOW  31  31 100 NE13      29.60R VSB 3/4 WCI  21
LEXINGTON      SNOW      31  30  93 NE17      29.59F VSB 1/2 WCI  20
STAPLETON        N/A     25  23  93 NE5G16      N/A  WCI  19
GOTHENBURG       N/A     29  27  92 N6          N/A  WCI  23
CALLAWAY         N/A     28  27  94 NE17        N/A  WCI  16
$$

...OBSERVATIONS IN CENTRAL LINCOLN COUNTY AREA...

CITY           SKY/WX    TMP DP  RH WIND       PRES   REMARKS
N.P. AIRPORT   LGT SNOW  30  25  81 NE16      29.63R WCI  19
N.P. DOWNTOWN    N/A     28  25  87 NE12G18     N/A  WCI  18
N.P. SOUTHEAST   N/A     28  24  86 NE7G16      N/A  WCI  21
N.P. HILLCREST   N/A     28  25  87 NE20G26     N/A  WCI  15
$$

...SOME OBSERVATIONS FROM AROUND THE REGION...

CITY           SKY/WX    TMP DP  RH WIND       PRES   REMARKS
LARAMIE        LGT SNOW  18  10  71 NE13      29.59R WCI   5
CHEYENNE       LGT SNOW  18  13  80 NE21G30   29.63R WCI   1
DENVER         SNOW      28  25  88 N20       29.61R VSB 1/2 WCI  15
AKRON          LGT SNOW  26  23  88 N20G25    29.61R FOG     WCI  12
SCOTTSBLUFF    HAZE      24  19  81 NE13      29.73R VSB 1/2 WCI  12
RAPID CITY     LGT SNOW  27  24  89 N15       29.88R VSB 3/4 WCI  15
BISMARCK       CLOUDY    29  25  85 N17       30.05R WCI  17
PIERRE         CLOUDY    30  22  72 NE16      29.91F WCI  19
SIOUX FALLS    SNOW      30  29  96 NE20      29.82F VSB 1/4 WCI  17
OMAHA          CLOUDY    41  33  73 NE18G26   29.63R
GRAND ISLAND   FRZ RAIN  32  32 100 NE22G28   29.58F FOG     WCI  19
KANSAS CITY    PTSUNNY   54  45  71 E16       29.44F
WICHITA        CLOUDY    72  47  40 S17       29.32F
OKLAHOMA CITY  MOSUNNY   86  37  17 SW17      29.38F
DALLAS         SUNNY     87  48  25 S24       29.46F
AMARILLO       SUNNY     76  14   9 SW30G43   29.46R
DODGE CITY     SUNNY     78  16   9 SW24G32   29.27F
HAYS             N/A     48  35  60 N24G32    29.43R
GOODLAND       CLOUDY    31  30  96 NE14      29.54R WCI  21
$$




USA.gov is the U.S. government's official web portal to all federal, state and local government web resources and services.